Location: Dallas
(32.7833°N, 96.8000°W)
Time: 20:47:37
(UTC-06:00)

Envisat - Pass Details

Date: 13 December 2021
Orbit: 764 x 766 km, 98.2° (Epoch: 23 January)

Event Time Altitude Azimuth Distance (km) Brightness Sun altitude
Rises 04:02:40 0° 38° (NE) 3,233 6.6 -40.8°
Reaches altitude 10° 04:06:27 10° 67° (ENE) 2,301 6.0 -40.0°
Maximum altitude 04:08:35 13° 92° (E) 2,122 5.9 -39.5°
Drops below altitude 10° 04:10:42 10° 117° (ESE) 2,294 6.1 -39.1°
Sets 04:14:26 0° 146° (SE) 3,214 6.7 -38.3°
